N207BZ EGCC-LFMD

Flight info

Callsign N207BZ
Flight time N/A
Altitude 41000
Route LISTO UL612 OGULO DCT MOKIP DCT VEVAR
Aircraft CL35/M-SDFGIRW/S

Departure

Time N/A
Airport Manchester Airport (EGCC)

Arrival

Time 2026-04-23 21:13
Airport Cannes Mandelieu Airport (LFMD)
Time Latitude Longitude Altitude Speed Heading
2026-04-23 19:49 49.48924 1.13431 40653 ft 298 kts 142°
2026-04-23 19:49 49.47251 1.15453 40867 ft 313 kts 142°
2026-04-23 19:49 49.45493 1.17572 41085 ft 329 kts 142°
2026-04-23 19:50 49.43646 1.19792 41255 ft 346 kts 142°
2026-04-23 19:50 49.41693 1.22135 41320 ft 367 kts 142°
2026-04-23 19:50 49.39620 1.24612 41318 ft 389 kts 142°
2026-04-23 19:50 49.37425 1.27229 41315 ft 410 kts 142°
2026-04-23 19:51 49.35903 1.29040 41317 ft 425 kts 142°
2026-04-23 19:51 49.34408 1.30816 41313 ft 438 kts 142°
2026-04-23 19:51 49.31973 1.33701 41310 ft 458 kts 142°
2026-04-23 19:52 49.27684 1.38770 41302 ft 467 kts 142°
2026-04-23 19:52 49.21668 1.45848 41296 ft 470 kts 142°
2026-04-23 19:53 49.16485 1.51917 41288 ft 469 kts 142°
2026-04-23 19:53 49.11305 1.57955 41281 ft 468 kts 143°
2026-04-23 19:54 49.06147 1.63940 41273 ft 464 kts 143°
2026-04-23 19:54 49.01030 1.69853 41264 ft 458 kts 143°
2026-04-23 19:55 48.95965 1.75679 41260 ft 453 kts 143°
2026-04-23 19:55 48.90994 1.81372 41265 ft 448 kts 143°
2026-04-23 19:56 48.86032 1.87029 41264 ft 444 kts 143°
2026-04-23 19:56 48.81097 1.92630 41261 ft 440 kts 143°
2026-04-23 19:57 48.76463 1.97865 41259 ft 439 kts 143°
2026-04-23 19:57 48.72418 2.02416 41257 ft 438 kts 143°
2026-04-23 19:58 48.67531 2.07891 41258 ft 436 kts 143°
2026-04-23 19:58 48.62643 2.13342 41257 ft 436 kts 143°
2026-04-23 19:59 48.57765 2.18755 41257 ft 435 kts 143°
2026-04-23 19:59 48.52882 2.24151 41256 ft 434 kts 143°
2026-04-23 20:00 48.48303 2.30067 41258 ft 433 kts 136°
2026-04-23 20:00 48.44056 2.36508 41260 ft 433 kts 134°
2026-04-23 20:01 48.39896 2.42969 41256 ft 432 kts 134°
2026-04-23 20:01 48.35719 2.49470 41254 ft 432 kts 134°
2026-04-23 20:02 48.31545 2.55961 41254 ft 432 kts 134°
2026-04-23 20:02 48.27373 2.62437 41247 ft 431 kts 134°
2026-04-23 20:03 48.23192 2.68907 41241 ft 431 kts 134°
2026-04-23 20:03 48.19021 2.75351 41246 ft 431 kts 134°
2026-04-23 20:04 48.14840 2.81797 41244 ft 430 kts 134°
2026-04-23 20:04 48.10562 2.88063 41242 ft 430 kts 136°
2026-04-23 20:05 48.06206 2.94123 41235 ft 430 kts 137°
2026-04-23 20:05 48.01806 3.00192 41237 ft 430 kts 137°
2026-04-23 20:06 47.97403 3.06248 41235 ft 430 kts 137°
2026-04-23 20:06 47.92994 3.12302 41232 ft 430 kts 137°
2026-04-23 20:07 47.88587 3.18335 41230 ft 430 kts 137°
2026-04-23 20:07 47.84178 3.24358 41233 ft 430 kts 137°
2026-04-23 20:08 47.79763 3.30374 41231 ft 430 kts 137°
2026-04-23 20:08 47.75352 3.36376 41230 ft 430 kts 137°
2026-04-23 20:09 47.70942 3.42365 41228 ft 430 kts 137°
2026-04-23 20:09 47.66552 3.48323 41230 ft 430 kts 137°
2026-04-23 20:10 47.62136 3.54312 41229 ft 430 kts 137°
2026-04-23 20:10 47.57718 3.60300 41229 ft 430 kts 137°
2026-04-23 20:11 47.53289 3.66298 41229 ft 431 kts 137°
2026-04-23 20:11 47.48867 3.72280 41230 ft 431 kts 137°
2026-04-23 20:12 47.44466 3.78224 41234 ft 431 kts 137°
2026-04-23 20:12 47.40037 3.84196 41235 ft 431 kts 137°
2026-04-23 20:13 47.35605 3.90162 41239 ft 431 kts 137°
2026-04-23 20:13 47.31163 3.96124 41236 ft 431 kts 137°
2026-04-23 20:14 47.26718 4.02078 41237 ft 431 kts 137°
2026-04-23 20:14 47.22275 4.08016 41241 ft 431 kts 137°
2026-04-23 20:15 47.17823 4.13951 41242 ft 431 kts 137°
2026-04-23 20:15 47.13374 4.19874 41242 ft 432 kts 137°
2026-04-23 20:16 47.08918 4.25786 41242 ft 432 kts 137°
2026-04-23 20:16 47.04484 4.31647 41238 ft 432 kts 137°
2026-04-23 20:17 47.00016 4.37542 41241 ft 432 kts 137°
2026-04-23 20:17 46.95544 4.43428 41238 ft 432 kts 137°
2026-04-23 20:18 46.91084 4.49302 41237 ft 432 kts 137°
2026-04-23 20:18 46.86613 4.55180 41234 ft 432 kts 137°
2026-04-23 20:19 46.82141 4.61052 41233 ft 432 kts 137°
2026-04-23 20:19 46.77670 4.66921 41228 ft 432 kts 137°
2026-04-23 20:20 46.73229 4.72738 41225 ft 432 kts 137°
2026-04-23 20:20 46.68754 4.78592 41224 ft 432 kts 137°
2026-04-23 20:21 46.64277 4.84444 41224 ft 432 kts 137°
2026-04-23 20:21 46.59800 4.90287 41220 ft 432 kts 137°
2026-04-23 20:22 46.55319 4.96131 41219 ft 432 kts 137°
2026-04-23 20:22 46.50837 5.01968 41220 ft 432 kts 137°
2026-04-23 20:23 46.46377 5.07764 41217 ft 433 kts 137°
2026-04-23 20:23 46.41885 5.13581 41218 ft 433 kts 137°
2026-04-23 20:24 46.37387 5.19389 41216 ft 433 kts 137°
2026-04-23 20:24 46.32891 5.25172 41218 ft 433 kts 137°
2026-04-23 20:25 46.28380 5.30952 41216 ft 433 kts 137°
2026-04-23 20:25 46.23868 5.36713 41222 ft 433 kts 137°
2026-04-23 20:26 46.19383 5.42429 41220 ft 433 kts 137°
2026-04-23 20:26 46.14695 5.47911 41221 ft 434 kts 142°
2026-04-23 20:27 46.09863 5.53111 41225 ft 434 kts 142°
2026-04-23 20:27 46.04998 5.58273 41224 ft 434 kts 142°
2026-04-23 20:28 46.00130 5.63420 41225 ft 434 kts 142°
2026-04-23 20:28 45.95258 5.68562 41225 ft 435 kts 142°
2026-04-23 20:29 45.92819 5.71131 41225 ft 435 kts 142°
2026-04-23 20:29 45.87650 5.76569 41223 ft 435 kts 143°
2026-04-23 20:30 45.82757 5.81715 41217 ft 435 kts 143°
2026-04-23 20:30 45.75531 5.89303 41218 ft 436 kts 143°
2026-04-23 20:31 45.70634 5.94440 41221 ft 436 kts 142°
2026-04-23 20:31 45.65741 5.99565 41222 ft 436 kts 143°
2026-04-23 20:32 45.60842 6.04692 41219 ft 436 kts 143°
2026-04-23 20:32 45.55936 6.09821 41219 ft 436 kts 142°
2026-04-23 20:33 45.51217 6.15171 41218 ft 436 kts 139°
2026-04-23 20:33 45.46551 6.20726 41215 ft 437 kts 139°
2026-04-23 20:34 45.41907 6.26293 41212 ft 437 kts 139°
2026-04-23 20:34 45.37255 6.31875 41215 ft 438 kts 139°
2026-04-23 20:35 45.32596 6.37461 41218 ft 438 kts 139°
2026-04-23 20:35 45.27929 6.43044 41214 ft 439 kts 139°
2026-04-23 20:36 45.23350 6.48509 41219 ft 439 kts 139°
2026-04-23 20:36 45.18664 6.54084 41215 ft 440 kts 139°
2026-04-23 20:37 45.13979 6.59658 41215 ft 440 kts 139°
2026-04-23 20:37 45.09291 6.65222 41211 ft 440 kts 139°
2026-04-23 20:38 45.04645 6.70729 41209 ft 440 kts 139°
2026-04-23 20:38 45.02296 6.73510 40809 ft 444 kts 139°
2026-04-23 20:38 44.99914 6.76328 40206 ft 446 kts 139°
2026-04-23 20:39 44.97537 6.79138 39626 ft 445 kts 139°
2026-04-23 20:39 44.95169 6.81931 39052 ft 442 kts 139°
2026-04-23 20:39 44.92816 6.84702 38394 ft 439 kts 139°
2026-04-23 20:39 44.90479 6.87449 37711 ft 436 kts 139°
2026-04-23 20:40 44.88151 6.90179 37053 ft 433 kts 139°
2026-04-23 20:40 44.85841 6.92879 36403 ft 430 kts 139°
2026-04-23 20:40 44.83542 6.95559 35763 ft 426 kts 139°
2026-04-23 20:40 44.81262 6.98207 35155 ft 423 kts 139°
2026-04-23 20:41 44.78926 7.00646 34550 ft 422 kts 146°
2026-04-23 20:41 44.77194 7.01987 34141 ft 421 kts 152°
2026-04-23 20:41 44.74467 7.03679 33463 ft 419 kts 156°
2026-04-23 20:41 44.71714 7.05012 32791 ft 418 kts 163°
2026-04-23 20:42 44.69062 7.05737 32187 ft 417 kts 169°
2026-04-23 20:42 44.66192 7.06240 31559 ft 414 kts 172°
2026-04-23 20:42 44.63333 7.06641 30944 ft 411 kts 172°
2026-04-23 20:42 44.60493 7.06998 30342 ft 408 kts 173°
2026-04-23 20:43 44.57665 7.07334 29660 ft 405 kts 173°
2026-04-23 20:43 44.54891 7.07659 28968 ft 403 kts 173°
2026-04-23 20:43 44.53045 7.07876 28522 ft 401 kts 173°
2026-04-23 20:43 44.50278 7.08207 27856 ft 399 kts 173°
2026-04-23 20:44 44.46586 7.08660 26993 ft 396 kts 173°
2026-04-23 20:44 44.44769 7.08888 26573 ft 395 kts 173°
2026-04-23 20:44 44.42039 7.09233 25957 ft 393 kts 173°
2026-04-23 20:44 44.39321 7.09579 25348 ft 391 kts 173°
2026-04-23 20:45 44.36615 7.09927 24752 ft 389 kts 173°
2026-04-23 20:45 44.33924 7.10276 24169 ft 388 kts 173°
2026-04-23 20:45 44.30382 7.10740 23345 ft 385 kts 173°
2026-04-23 20:45 44.28586 7.10976 22892 ft 384 kts 173°
2026-04-23 20:46 44.25936 7.11387 22221 ft 382 kts 169°
2026-04-23 20:46 44.23373 7.12348 21566 ft 379 kts 159°
2026-04-23 20:46 44.20938 7.13720 20940 ft 377 kts 154°
2026-04-23 20:46 44.18553 7.15225 20324 ft 376 kts 154°
2026-04-23 20:47 44.16185 7.16763 19710 ft 375 kts 153°
2026-04-23 20:47 44.13835 7.18308 19116 ft 374 kts 153°
2026-04-23 20:47 44.11515 7.19843 18546 ft 373 kts 153°
2026-04-23 20:47 44.09175 7.21393 17883 ft 372 kts 153°
2026-04-23 20:48 44.06844 7.22942 17229 ft 371 kts 153°
2026-04-23 20:48 44.04526 7.24481 16588 ft 369 kts 153°
2026-04-23 20:48 44.02209 7.26012 15957 ft 368 kts 153°
2026-04-23 20:48 43.99892 7.27533 15341 ft 367 kts 153°
2026-04-23 20:49 43.97586 7.29036 14739 ft 365 kts 153°
2026-04-23 20:49 43.95284 7.30521 14136 ft 364 kts 153°
2026-04-23 20:49 43.92991 7.31985 13495 ft 363 kts 153°
2026-04-23 20:49 43.90700 7.33438 12844 ft 361 kts 153°
2026-04-23 20:50 43.88424 7.34877 12205 ft 358 kts 153°
2026-04-23 20:50 43.86161 7.36310 11578 ft 356 kts 153°
2026-04-23 20:50 43.83923 7.37729 11205 ft 347 kts 153°
2026-04-23 20:50 43.81764 7.39093 10806 ft 341 kts 153°
2026-04-23 20:51 43.79600 7.40462 10205 ft 343 kts 153°
2026-04-23 20:51 43.77429 7.41857 9550 ft 342 kts 151°
2026-04-23 20:51 43.75448 7.43658 8901 ft 340 kts 140°
2026-04-23 20:51 43.73653 7.45793 8266 ft 339 kts 136°
2026-04-23 20:52 43.71914 7.47993 7645 ft 337 kts 135°
2026-04-23 20:52 43.70227 7.50160 7041 ft 334 kts 135°
2026-04-23 20:52 43.69905 7.50578 6927 ft 333 kts 135°
2026-04-23 20:52 43.68405 7.52973 6286 ft 328 kts 120°
2026-04-23 20:53 43.67538 7.55850 5648 ft 323 kts 107°
2026-04-23 20:53 43.66879 7.58811 5028 ft 320 kts 107°
2026-04-23 20:53 43.66147 7.61707 4382 ft 318 kts 109°
2026-04-23 20:53 43.65411 7.64532 4186 ft 303 kts 109°
2026-04-23 20:54 43.64725 7.67184 4183 ft 283 kts 109°
2026-04-23 20:54 43.64080 7.69676 4174 ft 269 kts 109°
2026-04-23 20:54 43.63458 7.72065 4165 ft 262 kts 109°
2026-04-23 20:54 43.62845 7.74408 4169 ft 257 kts 109°
2026-04-23 20:55 43.62235 7.76720 4169 ft 254 kts 109°
2026-04-23 20:55 43.61631 7.79000 4164 ft 252 kts 109°
2026-04-23 20:55 43.61025 7.81272 4167 ft 252 kts 109°
2026-04-23 20:55 43.60418 7.83538 4167 ft 252 kts 109°
2026-04-23 20:56 43.59807 7.85799 4171 ft 251 kts 109°
2026-04-23 20:56 43.59196 7.88057 4170 ft 251 kts 109°
2026-04-23 20:56 43.58593 7.90287 4172 ft 251 kts 109°
2026-04-23 20:56 43.57984 7.92537 4169 ft 250 kts 109°
2026-04-23 20:57 43.57372 7.94783 4172 ft 250 kts 109°
2026-04-23 20:57 43.56752 7.97022 4169 ft 250 kts 112°
2026-04-23 20:57 43.55635 7.98852 4169 ft 255 kts 146°
2026-04-23 20:57 43.53925 7.99415 4168 ft 259 kts 183°
2026-04-23 20:58 43.52202 7.98705 4180 ft 259 kts 202°
2026-04-23 20:58 43.50562 7.97689 4187 ft 258 kts 204°
2026-04-23 20:58 43.48945 7.96676 4186 ft 259 kts 204°
2026-04-23 20:58 43.47306 7.95636 4184 ft 259 kts 204°
2026-04-23 20:59 43.45677 7.94590 4184 ft 259 kts 204°
2026-04-23 20:59 43.44043 7.93541 4189 ft 259 kts 204°
2026-04-23 20:59 43.42406 7.92490 4185 ft 259 kts 204°
2026-04-23 20:59 43.40772 7.91440 4186 ft 259 kts 204°
2026-04-23 21:00 43.39140 7.90390 4187 ft 259 kts 204°
2026-04-23 21:00 43.37505 7.89342 4188 ft 259 kts 204°
2026-04-23 21:00 43.35872 7.88297 4187 ft 259 kts 204°
2026-04-23 21:00 43.34238 7.87248 4186 ft 259 kts 205°
2026-04-23 21:01 43.32845 7.85710 4164 ft 260 kts 236°
2026-04-23 21:01 43.32350 7.83370 4166 ft 259 kts 272°
2026-04-23 21:01 43.32678 7.80955 4187 ft 256 kts 286°
2026-04-23 21:01 43.33151 7.78592 4186 ft 257 kts 287°
2026-04-23 21:02 43.33624 7.76250 4175 ft 252 kts 287°
2026-04-23 21:02 43.34094 7.73937 4168 ft 251 kts 286°
2026-04-23 21:02 43.34484 7.71643 4171 ft 249 kts 283°
2026-04-23 21:02 43.34850 7.69284 4169 ft 249 kts 283°
2026-04-23 21:03 43.35211 7.66948 4168 ft 250 kts 283°
2026-04-23 21:03 43.35566 7.64644 4174 ft 250 kts 283°
2026-04-23 21:03 43.35926 7.62303 4174 ft 250 kts 283°
2026-04-23 21:03 43.36285 7.59962 4174 ft 250 kts 283°
2026-04-23 21:04 43.36647 7.57617 4172 ft 250 kts 283°
2026-04-23 21:04 43.37010 7.55278 4174 ft 250 kts 283°
2026-04-23 21:04 43.37372 7.52938 4174 ft 250 kts 283°
2026-04-23 21:04 43.37736 7.50595 4170 ft 250 kts 283°
2026-04-23 21:05 43.38102 7.48257 4171 ft 250 kts 283°
2026-04-23 21:05 43.38469 7.45914 4174 ft 250 kts 283°
2026-04-23 21:05 43.38833 7.43602 4171 ft 250 kts 283°
2026-04-23 21:05 43.39202 7.41261 4175 ft 251 kts 283°
2026-04-23 21:06 43.39567 7.38942 4171 ft 250 kts 283°
2026-04-23 21:06 43.39939 7.36586 4172 ft 250 kts 283°
2026-04-23 21:06 43.40311 7.34254 4169 ft 250 kts 283°
2026-04-23 21:06 43.40685 7.31926 4171 ft 249 kts 283°
2026-04-23 21:07 43.41061 7.29601 4170 ft 249 kts 283°
2026-04-23 21:07 43.41439 7.27274 4172 ft 249 kts 283°
2026-04-23 21:07 43.41820 7.24957 4170 ft 249 kts 283°
2026-04-23 21:07 43.42204 7.22635 4182 ft 248 kts 283°
2026-04-23 21:08 43.42588 7.20322 4182 ft 248 kts 283°
2026-04-23 21:08 43.42975 7.18013 4182 ft 247 kts 283°
2026-04-23 21:08 43.43364 7.15703 4185 ft 247 kts 283°
2026-04-23 21:08 43.43733 7.13502 4214 ft 232 kts 283°
2026-04-23 21:09 43.44092 7.11361 4192 ft 227 kts 283°
2026-04-23 21:09 43.44445 7.09237 4192 ft 228 kts 283°
2026-04-23 21:09 43.44796 7.07130 4102 ft 229 kts 283°
2026-04-23 21:09 43.45134 7.05022 3948 ft 205 kts 282°
2026-04-23 21:10 43.45410 7.03304 3753 ft 170 kts 285°
2026-04-23 21:10 43.45774 7.01829 3334 ft 160 kts 289°
2026-04-23 21:10 43.46122 7.00386 2887 ft 157 kts 288°
2026-04-23 21:10 43.46584 6.99042 2476 ft 155 kts 303°
2026-04-23 21:11 43.47220 6.97886 2188 ft 149 kts 308°
2026-04-23 21:11 43.48002 6.96942 1834 ft 151 kts 326°
2026-04-23 21:11 43.48936 6.96329 1538 ft 149 kts 340°
2026-04-23 21:11 43.49957 6.96010 1157 ft 151 kts 349°
2026-04-23 21:12 43.50969 6.95793 905 ft 142 kts 350°
2026-04-23 21:12 43.51936 6.95582 580 ft 138 kts 352°
2026-04-23 21:12 43.52862 6.95418 305 ft 133 kts 352°
2026-04-23 21:12 43.53761 6.95260 104 ft 128 kts 353°
2026-04-23 21:13 43.54608 6.95119 16 ft 108 kts 352°
2026-04-23 21:13 43.55092 6.95026 12 ft 41 kts 352°
2026-04-23 21:13 43.55325 6.94982 14 ft 20 kts 353°
2026-04-23 21:13 43.55394 6.95061 13 ft 16 kts 88°
2026-04-23 21:14 43.55354 6.95159 12 ft 13 kts 172°
2026-04-23 21:14 43.55251 6.95172 12 ft 17 kts 172°
2026-04-23 21:14 43.55133 6.95194 12 ft 14 kts 172°
2026-04-23 21:14 43.55034 6.95212 12 ft 16 kts 172°
2026-04-23 21:15 43.54918 6.95233 12 ft 14 kts 173°
2026-04-23 21:15 43.54827 6.95249 12 ft 12 kts 173°
2026-04-23 21:15 43.54766 6.95260 12 ft 7 kts 173°
2026-04-23 21:15 43.54712 6.95269 12 ft 7 kts 173°
2026-04-23 21:16 43.54697 6.95307 12 ft 6 kts 79°
2026-04-23 21:16 43.54687 6.95338 12 ft 3 kts 163°
2026-04-23 21:16 43.54669 6.95340 12 ft 2 kts 175°
2026-04-23 21:16 43.54667 6.95340 12 ft 0 kts 175°